Claresholm, Alberta

6:27 AM MDT on October 18, 2017 (GMT -0600)
Claresholm

Weather History for CWDK - October, 2012

Change the Weather History Date:

Monday, October 29, 2012

  Actual Average Record
Temperature  
Mean Temperature 33 °F -  
Max Temperature 40 °F - - ()
Min Temperature 26 °F - - ()
Degree Days  
Heating Degree Days 32    
Moisture  
Dew Point 29 °F    
Average Humidity 94    
Maximum Humidity 100    
Minimum Humidity 76    
Precipitation  
Precipitation 0.00 in - - ()
Sea Level Pressure  
Sea Level Pressure 29.90 in    
Wind  
Wind Speed 5 mph ()    
Max Wind Speed 12 mph    
Max Gust Speed -    
T = Trace of Precipitation, MM = Missing Value Source: Averaged Metar Reports

Daily Weather History Graph

Daily Weather History Graph

Search for Another Location

Airport or City:

Trip Planner

Search our weather history database for the weather conditions in past years. The results will help you decide how hot, cold, wet, or windy it might be!

Date:

Astronomy

Oct. 29, 2012 Rise Set
Actual Time 8:20 AM MDT 6:15 PM MDT
Civil Twilight 7:46 AM MDT 6:49 PM MDT
Nautical Twilight 7:08 AM MDT 7:27 PM MDT
Astronomical Twilight 6:30 AM MDT 8:04 PM MDT
Moon 6:04 PM MDT (10/29) 8:17 AM MDT (10/29)
Length of Visible Light 11h 02m
Length of Day
9h 55m
Full, 100% of the Moon is Illuminated
Oct 29
Full
Oct 29
Full
Nov 6
Last Quarter
Nov 13
New
Nov 20
First Quarter

Hourly Weather History & Observations

Time (MDT) Temp. Windchill Dew Point Humidity Pressure Visibility Wind Dir Wind Speed Gust Speed Precip Events Conditions
12:00 AM 27 °F - 26 °F 97% 29.99 in - NNE 5.8 mph - -  
12:00 AM 27.0 °F 20.5 °F 26.4 °F 98% 29.99 in - NNE 5.8 mph - N/A   Unknown
1:00 AM 26.8 °F 21.4 °F 26.1 °F 97% 29.99 in - NE 4.6 mph - N/A   Unknown
2:00 AM 26.4 °F - 25.9 °F 98% 29.98 in - East 2.3 mph - N/A   Unknown
3:00 AM 26.8 °F 22.8 °F 26.4 °F 99% 29.96 in - SE 3.5 mph - N/A   Unknown
4:00 AM 26.4 °F 18.0 °F 26.2 °F 99% 29.95 in - SSE 8.1 mph - N/A   Unknown
5:00 AM 26.6 °F 18.2 °F 26.6 °F 100% 29.93 in - South 8.1 mph - N/A   Unknown
6:00 AM 27 °F - 27 °F 99% 29.90 in - South 9.2 mph - -  
6:00 AM 26.8 °F 17.7 °F 26.8 °F 100% 29.90 in - South 9.2 mph - N/A   Unknown
7:00 AM 27.1 °F 18.2 °F 27.1 °F 100% 29.89 in - SSE 9.2 mph - N/A   Unknown
8:00 AM 27.5 °F 21.1 °F 27.5 °F 100% 29.88 in - SSE 5.8 mph - N/A   Unknown
10:00 AM 28.4 °F 22.2 °F 28.4 °F 100% 29.89 in - SSE 5.8 mph - N/A   Unknown
11:00 AM 29.1 °F 23.0 °F 29.1 °F 100% 29.89 in - SSE 5.8 mph - N/A   Unknown
12:00 PM 30 °F - 29 °F 95% 29.88 in - SE 5.8 mph - -  
12:00 PM 29.7 °F 23.7 °F 29.1 °F 98% 29.88 in - SE 5.8 mph - N/A   Unknown
1:00 PM 31.5 °F 26.8 °F 28.9 °F 90% 29.86 in - SSE 4.6 mph - N/A   Unknown
2:00 PM 35.8 °F 30.9 °F 30.0 °F 80% 29.83 in - SE 5.8 mph - N/A   Unknown
3:00 PM 37.0 °F 33.3 °F 30.7 °F 78% 29.82 in - SE 4.6 mph - N/A   Unknown
4:00 PM 38.5 °F 36.1 °F 31.8 °F 77% 29.81 in - NE 3.5 mph - N/A   Unknown
5:00 PM 39.9 °F 36.7 °F 32.9 °F 76% 29.83 in - NNE 4.6 mph - N/A   Unknown
6:00 PM 36 °F - 33 °F 85% 29.84 in - West 2.3 mph - -  
6:00 PM 36.1 °F - 33.1 °F 89% 29.84 in - West 2.3 mph - N/A   Unknown
7:00 PM 31.5 °F 25.8 °F 30.6 °F 96% 29.87 in - East 5.8 mph - N/A   Unknown
9:00 PM 27.7 °F - 27.7 °F 100% 29.92 in - ENE 1.2 mph - N/A   Unknown
10:00 PM 33.3 °F 27.9 °F 31.3 °F 92% 29.92 in - SE 5.8 mph - N/A   Unknown
11:00 PM 39.6 °F 32.5 °F 36.9 °F 90% 29.90 in - WSW 11.5 mph - N/A   Unknown